STARLINK-30934, 58395

Orbit data source: Space-Track

STARLINK-30934, 58395 is a payload satellite owned by SpaceX/Seattle (US) in LEO that was launched on Mon, 20 Nov 2023 UTC via an FALCON 9 launch vehicle from the Air Force Western Test Range (AFWTR). Payload-class satellites include a variety of spacecraft equipped with specific instruments for various scientific and technological missions. These include communications satellites like Starlink; space stations such as the ISS; scientific satellites like the Hubble; Earth observation satellites from companies like Planet Labs, Umbra, and HawkEye 360; GPS; miniature CubeSats for education and research; and military/defense satellites.

Loading next visibility...
Identifier
58395, 2023-178X
Orbit
LEO
Country
Flag of USUS
Related business
Manufacturer
SpaceX/Seattle
Mission
Operational Commercial Communications
Bus & Motor
STARLINK V2M, Unknown motor
Mass
730 kg wet, ~700 kg dry
Launch date (UTC)
2023-11-20 (3 years ago)
Launch vehicle
FALCON 9
Launch site
Air Force Western Test Range (AFWTR)
Object type
Payload
Rocket body
Debris
Shape & HBR
Box + 2 Pan, 17.7 m
Radar Cross Section
33.884 m², Large (>1 m²)

Expand to show TLE details & history
Last TLE update: 2 days ago

TLE from 2 days ago
0 STARLINK-30934
1 58395U 23178X   26171.44083323 -.00003855  00000-0 -10298-3 0  9991
2 58395  53.1599 242.4251 0001178  86.0899 274.0239 15.34413983145571
Epoch: 2026-06-20T10:34Z
TLE epoch observation values (Epoch: 2026-06-20T10:34:47.991Z)
Latitude
0.00006°
Longitude
175.06976°
Altitude
463.507 km
Speed
7.636 km/s
True Right ascension
16h 09m 42s
True Declination
0° 00' 00"
Sunlit
Object was in full shadow at epoch
Visualization orbit readout
Latitude
Unknown
Longitude
Unknown
Altitude
Unknown
Speed
Unknown
Apparent Right ascension
Unknown
Apparent Declination
Unknown
Sunlit
N/A
Visualization observer readout
Local Sidereal Time
21:31:52
Azimuth
Unknown
Elevation
Unknown
Doppler factor
Unknown
Orbital elements
Apogee altitude
463.724 km
Perigee altitude
462.113 km
Semi-major axis
6,841.056 km
Eccentricity
0.00012
Inclination
53.1599°
RAAN
242.4251°
Arg. of periapsis
86.0899°
True anomaly
274.01043°
Mean anomaly
274.0239°
Eccentric anomaly
274.01717°
Mean motion
3.83582 °/min
Orbital period
93.85 mins
BSTAR
-0.00010298
Loading maneuver chart data...
Computing Atmospheric mass density...
Loading historical data...
Loading historical data...
Loading historical data...
Loading historical data...
Loading historical data...
Loading historical data...
Loading historical data...

Documentation

Showing up to 5 results
|